Location: *
(42.2356°S, 106.5866°E)
Time: 11:50:16
(UTC+00:00)

Daily predictions for brighter satellites

Satellite Brightness Start Highest point End
(mag) Time Altitude Azimuth Time Altitude Azimuth Time Altitude Azimuth
Cosmos 2278 Rocket 2.4 12:11:38 10° SSW 12:17:19 62° ESE 12:22:56 10° NE
Cosmos 1606 Rocket 3.6 12:17:00 10° S 12:21:33 82° E 12:26:03 10° N
Cosmos 2237 Rocket 2.2 12:19:03 10° NNW 12:24:41 68° ENE 12:30:22 10° SSE
SL-16 R/B 3.5 12:20:46 10° NE 12:24:42 19° E 12:28:39 10° SE
Cosmos 2369 Rocket 4.3 12:22:35 10° SSE 12:24:43 12° SE 12:26:51 10° ESE
ACS3 Solar Sail 2.5 12:19:31 10° SSE 12:25:16 35° E 12:30:59 10° NNE
COSMOS 2428 4.0 12:24:01 10° NW 12:29:30 47° WSW 12:35:02 10° SSE
Cosmos 2058 2.8 12:27:29 10° N 12:31:29 70° E 12:35:33 10° SSE
Cosmos 1461 3.2 12:27:42 10° N 12:31:41 42° ENE 12:35:41 10° SE
SJ-6B 3.4 12:29:00 10° SSE 12:32:29 34° E 12:35:57 10° NNE
Helios 1B rocket 2.4 12:32:21 10° SSE 12:36:08 52° E 12:39:51 10° N
Hubble Space Telescope 2.9 12:35:04 10° NNW 12:36:13 11° N 12:37:21 10° NNE
Cosmos 2058 Rocket 3.6 12:32:35 10° S 12:36:58 44° ESE 12:41:16 10° NNE
USA 186 3.5 12:35:49 10° ESE 12:37:32 14° E 12:38:36 12° ENE
SPOT 1/Viking Rocket 3.7 12:34:12 10° SSE 12:39:17 52° E 12:44:19 10° N
CZ-2C R/B 3.4 12:36:15 10° S 12:39:40 54° WSW 12:43:05 10° NNW
ASTEX 1 4.0 12:35:12 10° SSE 12:39:44 35° E 12:44:14 10° NNE
Landsat 7 4.5 12:35:40 10° S 12:40:23 61° WSW 12:45:03 10° NNW
Resurs 1-3 3.6 12:36:43 10° SSE 12:41:05 60° E 12:45:23 10° N
Cosmos 1937 Rocket 4.2 12:36:44 10° SSW 12:41:53 56° WNW 12:47:01 10° N
Cosmos 1814 Rocket 4.0 12:40:08 10° N 12:45:26 66° ENE 12:50:48 10° SSE
Resurs 01 Rocket 2.7 12:41:46 10° SE 12:45:32 26° E 12:49:01 11° NNE
Meteor PRIRODA 4.1 12:46:10 10° SSE 12:49:09 31° E 12:51:44 12° NNE
CZ-4B R/B 3.9 12:48:48 10° SSE 12:53:39 42° E 12:58:33 10° N
SL-8 Rocket 4.0 12:47:45 10° N 12:53:58 66° E 13:00:12 10° SSE
Cosmos 1238 Rocket 4.0 12:55:01 10° SSE 12:58:43 27° ESE 13:00:39 18° ENE
SeaSat 1 2.5 12:55:10 14° NE 12:59:27 73° ESE 13:04:25 10° SSW
BREEZE-M DEB (TANK) 3.4 12:59:05 10° WNW 13:02:49 46° SW 13:05:04 10° SE
Cosmos 1980 4.5 12:58:27 10° NW 13:04:00 57° WSW 13:09:39 10° SSE
Cosmos 1125 Rocket 4.5 13:02:34 10° S 13:07:18 33° ESE 13:10:21 18° ENE
Cosmos 1500 2.7 13:06:32 10° N 13:09:48 86° ENE 13:13:07 10° S
BREEZE-M DEB (TANK) 1.3 13:10:33 10° WSW 13:12:56 79° NNW 13:13:39 37° NE
Meteor 2-13 Rocket 4.4 13:07:27 10° S 13:13:37 72° E 13:18:45 15° NNE
Cosmos 1570 Rocket 4.4 13:09:09 10° N 13:14:10 43° ENE 13:19:15 10° SSE
SL-8 R/B 3.7 13:11:19 10° WSW 13:16:10 85° SSE 13:19:13 23° ENE
Cosmos 2221 4.2 13:14:39 10° SSE 13:17:31 17° ESE 13:18:34 16° E
Lacrosse 5 rocket 1.9 13:15:35 10° WNW 13:19:04 51° SW 13:22:43 10° SE
Okean 1-7 Rocket 4.2 13:18:32 23° NE 13:20:51 39° E 13:25:09 10° SSE
ADEOS 3.6 13:19:26 10° SSE 13:24:45 88° WSW 13:30:00 10° NNW
Cosmos 1666 2.6 13:24:20 12° NNW 13:27:21 64° W 13:30:39 10° S
Cosmos 1626 Rocket 3.6 13:23:21 10° N 13:27:50 90° W 13:32:23 10° S
Lacrosse 5 4.3 13:24:13 10° WSW 13:28:17 23° SSW 13:32:23 10° SSE
Meteor 2-3 Rocket 3.7 13:22:42 10° N 13:28:21 88° W 13:34:08 10° S
Cosmos 1782 3.4 13:26:04 10° SSW 13:29:50 51° W 13:32:45 15° NNW
NOSS 3-4 (A) 4.1 13:23:13 10° SW 13:29:53 52° WNW 13:34:17 17° N
NOSS 3-4 (C) 4.1 13:23:20 10° SW 13:30:00 52° WNW 13:34:22 18° N
Meteor 2-2 Rocket 4.3 13:25:01 10° S 13:31:08 84° E 13:35:22 20° NNE
Cosmos 1727 Rocket 4.2 13:26:48 10° S 13:32:57 56° E 13:36:30 25° NNE
USA 267 4.3 13:27:53 14° N 13:33:03 36° NW 13:39:03 10° WSW
Genesis I 2.7 13:30:17 10° SW 13:33:31 72° WNW 13:34:22 44° NNE
CZ-4B R/B 3.1 13:33:57 10° SSE 13:39:16 60° ENE 13:42:40 22° N
Cosmos 546 4.4 13:36:23 10° NW 13:40:09 76° NE 13:44:00 10° ESE
Gbstr 26 Del rocket 4.5 13:36:04 10° SW 13:41:43 42° SSE 13:45:05 18° E
Cosmos 2208 Rocket 4.1 13:38:42 22° N 13:41:53 55° ENE 13:47:01 10° SSE
CZ-4 R/B 2.1 13:39:38 10° S 13:43:39 53° WSW 13:47:36 10° NNW
Cosmos 158 Rocket 3.8 13:39:04 10° NNW 13:44:11 82° ENE 13:49:14 10° SSE
SPOT 5 3.5 13:40:31 10° SE 13:44:25 30° E 13:44:31 30° E
Okean O Rocket 1.9 13:40:52 10° SSE 13:45:08 45° E 13:46:05 39° NE
Cosmos 1602 Rocket 3.5 13:42:45 26° N 13:45:12 78° E 13:49:45 10° S
Cosmos 1340 Rocket 4.0 13:42:13 10° SSW 13:45:48 36° W 13:48:17 17° NNW
CSL-04 Rocket 3.5 13:42:33 10° SSE 13:47:55 73° ENE 13:51:29 22° N
Cosmos 1656 Rocket 3.8 13:45:01 10° SSW 13:50:42 65° ESE 13:53:06 35° NE
Cosmos 1933 4.1 13:47:06 10° SSW 13:50:58 48° W 13:53:03 24° NNW
Cosmos 1862 4.3 13:48:38 12° NNW 13:51:59 43° WSW 13:55:40 10° S
Cosmos-2242 3.7 13:49:45 10° SSW 13:54:01 51° W 13:56:25 23° NNW
Cosmos 1943 Rocket 3.7 13:49:24 10° SW 13:54:11 30° WNW 13:58:24 12° NNW
BREEZE M DEB (TANK) 3.8 13:52:00 10° SW 13:54:53 47° SSE 13:58:52 19° E
Feng Yun 1-1 Rocket 4.3 13:49:30 10° SSE 13:55:33 81° ENE 13:59:54 19° N
SL-24 R/B - RUBIN 2 4.4 13:53:22 10° SW 13:58:19 56° WNW 14:00:42 32° N
Cosmos 2278 Rocket 4.4 13:56:56 10° SW 14:00:48 19° W 14:04:40 10° NW
Okean-O 3.0 13:57:28 10° SSE 14:01:43 42° E 14:01:48 42° ENE
Cosmos 2297 3.7 13:58:11 10° SSW 14:03:54 68° ESE 14:05:51 41° NE
CZ-4B R/B 4.2 14:00:40 10° S 14:04:45 42° WSW 14:08:31 11° NW
Cosmos 1812 Rocket 3.5 14:00:26 10° S 14:04:50 78° W 14:06:05 46° N
Cosmos 2151 3.3 14:06:07 45° E 14:06:07 45° E 14:10:02 10° SSE
SL-16 R/B 2.7 14:02:36 10° NW 14:08:14 62° WSW 14:13:57 10° SSE
ACS3 Solar Sail 3.1 14:03:10 10° S 14:08:59 40° WSW 14:14:49 10° NW
USA 186 4.0 14:06:31 10° SSW 14:09:03 23° WSW 14:10:54 14° WNW
Cosmos 2150 Rocket 4.3 14:03:50 10° SSW 14:09:05 55° ESE 14:10:23 43° ENE
Cosmos 2369 Rocket 2.3 14:04:14 10° SSW 14:09:55 63° ESE 14:11:42 42° NE
ERS-1 Rocket 3.7 14:06:48 10° SSE 14:11:21 35° E 14:11:21 35° E
ATLAS 2AS CENTAUR R/B 4.3 14:08:38 10° SSW 14:14:47 27° SE 14:20:08 13° E
Cosmos 1934 Rocket 4.0 14:17:05 43° NNE 14:18:59 63° E 14:25:07 10° SSE
CZ-4C R/B 3.7 14:19:50 34° NE 14:20:45 35° ENE 14:27:35 10° SE
Resurs 01 Rocket 3.5 14:18:01 10° S 14:21:54 29° WSW 14:25:43 10° NW
RESURS DK-1 3.4 14:20:21 10° S 14:24:07 33° ESE 14:24:07 33° ESE
Cosmos 773 Rocket 3.9 14:24:14 47° N 14:25:46 82° ENE 14:31:06 10° SSE
Cosmos 1603 4.4 14:27:32 37° E 14:27:32 37° E 14:32:24 10° SE
MOS 1 Rocket 3.8 14:27:16 10° S 14:32:39 69° WSW 14:34:51 35° NNW
CZ-2C R/B 3.6 14:35:20 73° NE 14:35:45 82° ESE 14:40:30 10° S
Landsat 5 3.7 14:37:26 54° W 14:37:26 54° W 14:41:11 10° SSW
Cosmos 1953 Rocket 3.5 14:37:37 76° SE 14:37:37 76° SE 14:41:48 10° S
Cosmos 1825 Rocket 4.0 14:36:44 49° NW 14:37:38 61° W 14:42:07 10° S
Cosmos 1340 4.5 14:40:53 21° SSE 14:40:53 21° SSE 14:42:06 10° SSE
PSLV R/B 4.4 14:37:38 10° S 14:40:19 48° SSW 14:40:19 48° SSW
Meteor 2-19 Rocket 4.5 14:35:30 10° SSW 14:41:37 75° W 14:43:27 47° NNW
IRS-1C Rocket 4.3 14:36:44 10° SSE 14:41:55 53° E 14:41:55 53° E
Cosmos 2298 Rocket 4.1 14:43:44 10° SSW 14:49:03 67° WNW 14:49:43 60° NNW
IRS-1A Rocket 4.1 14:46:45 10° SSE 14:52:25 78° ENE 14:53:05 68° NNE
Cosmos 2221 3.4 14:50:55 10° SSW 14:54:55 40° W 14:55:05 39° W
Cosmos 2123 Rocket 4.1 14:50:25 10° SSW 14:56:43 68° W 14:58:22 49° NNW
Lacrosse 5 rocket 4.4 14:55:56 10° SW 14:57:48 13° SSW 14:59:41 10° S
Terra 1.7 14:53:25 10° SSE 14:58:02 81° SE 14:58:02 81° SE
Spot 2 Rocket 3.5 14:55:11 10° SSE 14:59:59 65° ESE 14:59:59 65° ESE
Cosmos 1943 3.5 15:05:46 39° NW 15:07:45 62° WSW 15:13:23 10° SSE
Meteor 1-20 Rocket 4.0 15:08:59 77° NNW 15:09:24 88° W 15:15:07 10° S
BREEZE-M DEB (TANK) 3.5 15:03:32 10° WNW 15:11:02 61° SSW 15:11:03 61° SSW
USA 245 4.0 15:10:50 10° S 15:15:32 73° WSW 15:15:47 71° WNW
SL-4 R/B 4.2 15:19:01 18° SE 15:19:01 18° SE 15:20:18 10° SE
Meteor 2-21 4.3 15:13:50 10° S 15:20:06 76° E 15:20:34 72° ENE
PSLV R/B 4.4 15:21:05 49° SE 15:21:05 49° SE 15:25:05 10° S
Cosmos 1605 Rocket 4.1 15:19:14 57° NNW 15:20:33 75° W 15:27:04 10° S
Okean O Rocket 4.1 15:18:00 10° SSW 15:21:00 18° WSW 15:23:24 12° W
SPOT 5 4.5 15:18:40 10° SSW 15:22:18 26° WSW 15:23:38 22° W
Cosmos 2100 Rocket 4.5 15:25:50 46° E 15:25:52 46° E 15:31:58 10° SSE
H-2A R/B 4.5 15:27:43 14° ESE 15:27:43 14° ESE 15:29:54 10° SSE
Gbstr 26 Del rocket 4.1 15:23:22 10° WSW 15:27:14 42° W 15:27:14 42° W
Meteor 2-15 4.3 15:31:30 80° N 15:31:54 88° E 15:38:08 10° S
Meteor 1-27 Rocket 3.7 15:28:05 10° SSW 15:33:42 72° W 15:33:42 72° W
Meteor 2-4 Rocket 4.0 15:30:39 10° S 15:36:37 62° ESE 15:36:40 62° E
Cosmos 1447 Rocket 4.4 15:31:42 10° S 15:37:59 81° W 15:38:24 77° NW
Ariane Rocket 3.1 15:33:46 10° S 15:38:40 71° SW 15:38:40 71° SW
Meteor 2-15 Rocket 4.3 15:44:20 81° ENE 15:44:26 82° E 15:50:41 10° S
Meteor 2-16 Rocket 4.3 15:42:59 10° S 15:49:10 78° E 15:49:13 78° E
Cosmos 2369 Rocket 4.0 15:49:30 10° WSW 15:53:21 19° W 15:53:29 19° W
Cosmos 2173 Rocket 3.9 15:59:36 80° ENE 15:59:42 80° E 16:06:10 10° S
Meteor 1-5 Rocket 4.3 16:01:30 72° WSW 16:01:30 72° WSW 16:07:12 10° S
Cosmos 2016 Rocket 4.4 16:01:43 49° E 16:01:43 49° E 16:07:19 10° SSE
ATLAS 2AS CENTAUR R/B 2.7 15:59:10 10° SW 16:06:39 89° WNW 16:07:32 72° NNE
CZ-4C R/B 3.3 16:04:45 31° WNW 16:09:08 65° SW 16:16:23 10° SSE
Cosmos 1697 Rocket 4.3 16:07:42 10° S 16:12:25 26° SE 16:13:51 24° ESE
Cosmos 1680 Rocket 4.5 16:14:48 40° ESE 16:14:48 40° ESE 16:18:29 10° SSE
MetOp-A 4.4 16:12:12 10° SSE 16:16:36 61° SSE 16:16:36 61° SSE
Cosmos 1066 Rocket 4.3 16:13:06 10° S 16:18:43 77° SSE 16:18:43 77° SSE
Cosmos 1459 Rocket 3.9 16:22:13 73° WSW 16:22:13 73° WSW 16:28:17 10° S
USA 81 4.4 16:17:23 10° S 16:21:56 63° SSE 16:21:56 63° SSE
CENTAUR R/B 4.3 16:24:34 25° ENE 16:24:34 25° ENE 16:29:43 10° ESE
Cosmos 1241 Rocket 4.5 16:25:20 74° ESE 16:25:20 74° ESE 16:31:15 10° SE
Cosmos 1802 Rocket 3.9 16:28:13 85° SW 16:28:13 85° SW 16:34:29 10° S
Cosmos 923 Rocket 4.4 16:30:24 59° S 16:30:24 59° S 16:34:41 10° SSE
Cosmos 2082 Rocket 4.4 16:30:53 13° E 16:30:53 13° E 16:32:35 10° ESE
ATLAS 5 CENTAUR R/B 3.2 16:33:28 46° ENE 16:33:28 46° ENE 16:39:48 10° SE
Terra 4.4 16:33:23 10° SW 16:35:04 12° WSW 16:36:42 10° W
ATLAS CENTAUR R/B 4.0 16:32:52 10° SSW 16:33:20 13° SSW 16:33:20 13° SSW
Cosmos 1420 Rocket 4.4 16:37:17 10° SSW 16:41:37 59° S 16:41:37 59° S
Cosmos 2233 Rocket 3.9 16:46:44 76° ESE 16:46:44 76° ESE 16:52:47 10° S
Cosmos 1371 Rocket 4.5 16:41:39 10° SSW 16:46:10 56° SSE 16:46:10 56° SSE
Cosmos 1656 4.1 16:43:27 10° SSW 16:48:09 57° WSW 16:48:09 57° WSW
CZ-2D R/B 4.2 16:48:43 17° E 16:50:38 20° ESE 16:54:28 10° SSE
Cosmos 2061 Rocket 3.9 16:52:52 87° NE 16:52:57 88° E 16:59:30 10° S
Meteor 1-11 Rocket 4.1 16:54:12 55° ESE 16:54:12 55° ESE 16:59:12 10° SSE
SL-4 R/B 4.4 16:53:18 13° SW 16:55:46 21° S 16:58:59 10° SE
Lacrosse 5 4.0 16:53:24 10° SSW 16:57:35 24° SSE 17:01:45 10° ESE
H-2A R/B 3.5 17:04:23 34° SSW 17:04:23 34° SSW 17:07:02 10° SSW
Cosmos 1833 Rocket 2.8 17:03:51 73° S 17:03:51 73° S 17:09:03 10° SSE
CZ-2C R/B 3.9 17:06:34 43° ESE 17:06:46 43° ESE 17:11:52 10° S
COSMOS 2455 4.1 17:08:26 28° E 17:08:26 28° E 17:12:52 10° SE
Tsikada Rocket 4.1 17:12:31 10° SSW 17:18:42 64° W 17:18:42 64° W
Cosmos 2056 Rocket 4.1 17:14:35 10° SSW 17:18:30 49° SW 17:18:30 49° SW
Cosmos 1867 4.0 17:23:43 53° ESE 17:23:43 53° ESE 17:28:06 10° SE
CZ-3B R/B 4.0 17:20:26 54° NNW 17:22:49 82° NE 17:54:57 10° SE
Cosmos 1818 4.3 17:20:55 10° SW 17:24:40 43° WSW 17:24:40 43° WSW
Cosmos 921 Rocket 4.4 17:27:45 34° SE 17:27:45 34° SE 17:30:34 10° SSE
Sich 1 4.1 17:29:17 43° SSE 17:29:17 43° SSE 17:32:22 10° SSE
Meteor 1-13 Rocket 4.3 17:22:42 10° SSW 17:28:29 79° WSW 17:28:29 79° WSW
Cosmos 1513 Rocket 4.4 17:30:01 68° ENE 17:30:19 69° E 17:36:26 10° SSE
ARIANE 5 R/B 4.2 17:27:04 10° S 17:30:03 28° SW 17:30:03 28° SW
ADEOS II 3.6 17:32:08 25° E 17:33:57 31° ESE 17:38:33 10° S
IDEFIX/ARIANE 42P 2.6 17:35:29 75° SE 17:35:29 75° SE 17:40:30 10° S
Meteor 2-9 Rocket 4.3 17:39:56 62° SW 17:39:56 62° SW 17:44:59 10° S
Cosmos 1980 Rocket 2.6 17:34:51 10° SSW 17:40:29 58° ESE 17:41:32 49° ENE
Cosmos 1743 Rocket 4.4 17:41:58 49° SSE 17:41:58 49° SSE 17:45:18 10° SSE
COSMOS 2406 4.0 17:43:23 41° ENE 17:43:29 41° ENE 17:48:49 10° SE
Cosmos 1048 Rocket 4.1 17:44:08 79° S 17:44:08 79° S 17:49:15 10° SSE
Cosmos 1110 Rocket 4.1 17:43:51 10° SSW 17:49:04 68° ESE 17:49:08 68° ESE
Cosmos 2369 4.5 17:44:57 10° SSW 17:50:34 49° ESE 17:52:52 32° ENE
Cosmos 1891 Rocket 4.3 17:50:19 73° WNW 17:50:41 76° W 17:56:55 10° S
Resurs 1-4 Rocket 2.3 17:50:20 63° ENE 17:50:49 67° ESE 17:56:09 10° S
ALOS 2 3.7 17:47:41 10° S 17:51:04 38° SW 17:51:04 38° SW
Cosmos 1697 Rocket 3.3 17:51:10 10° SW 17:55:32 44° WSW 17:55:32 44° WSW
GP-B 4.1 17:52:22 10° S 17:55:37 41° SW 17:55:37 41° SW
NPP 3.7 18:01:28 67° W 18:01:28 67° W 18:06:38 10° SSW
Cosmos 1805 Rocket 4.4 18:04:45 43° SW 18:04:45 43° SW 18:08:07 10° S
Cosmos 2228 Rocket 3.8 18:00:00 10° S 18:04:31 48° ESE 18:04:46 47° E
USA 215 3.3 17:58:28 10° ENE 18:05:02 78° SE 18:11:40 10° SW
Cosmos 1331 Rocket 3.9 18:07:04 10° SSW 18:12:17 81° W 18:12:17 81° W
Cosmos 2082 Rocket 2.0 18:12:42 75° NW 18:13:11 84° WSW 18:18:56 10° SSE
Nadezhda 4 Rocket 3.9 18:07:46 10° S 18:14:09 88° E 18:15:34 57° N
CENTAUR R/B 2.9 18:11:40 49° NW 18:14:09 80° SW 18:21:12 10° SE
Lacrosse 5 rocket 4.1 18:13:54 10° SSW 18:16:37 18° SSE 18:19:24 10° ESE
ATLAS 5 CENTAUR R/B 3.4 18:13:50 33° W 18:16:43 47° SW 18:23:28 10° SSE
Aureole 3 Rocket 4.3 18:17:54 47° N 18:20:32 87° E 18:26:53 10° S
H-2A R/B 3.7 18:20:05 10° S 18:23:11 31° SW 18:23:11 31° SW
Cosmos 1464 Rocket 4.2 18:28:07 50° WNW 18:29:14 57° W 18:35:35 10° S
Cosmos 1707 Rocket 3.5 18:25:20 10° S 18:29:45 84° SSE 18:29:45 84° SSE
CZ-2D R/B 2.1 18:30:00 60° WNW 18:30:07 60° WNW 18:35:30 10° SSW
Cosmos 1975 4.4 18:32:22 25° SW 18:32:22 25° SW 18:34:47 10° SSW
Cosmos 1666 Rocket 3.5 18:33:13 79° SW 18:33:13 79° SW 18:37:30 10° S
Meteor 1-21 4.4 18:27:43 10° SSW 18:33:24 55° W 18:33:53 54° WNW
AQUA 3.9 18:34:05 53° NE 18:35:07 72° ESE 18:39:54 10° S
SL-4 R/B 4.1 18:31:35 10° SW 18:35:09 28° SSE 18:38:52 10° ESE
Cosmos 1862 Rocket 3.5 18:31:33 10° S 18:36:06 89° E 18:36:13 85° NNE
H-2A R/B 3.6 18:36:49 62° SW 18:36:49 62° SW 18:40:16 10° SSW
Cosmos 1766 4.5 18:39:06 31° SW 18:39:06 31° SW 18:41:33 10° S
Cosmos 44 4.4 18:38:05 29° NE 18:38:51 31° ENE 18:43:12 10° SE
Cosmos 1908 3.7 18:40:27 53° SSE 18:40:27 53° SSE 18:43:14 10° S
Cosmos 1470 Rocket 3.8 18:40:17 55° NE 18:40:54 62° E 18:45:23 10° SSE
Lacrosse 5 1.8 18:36:02 10° SW 18:41:12 87° SE 18:46:20 10° NE
Envisat 3.8 18:38:33 22° NE 18:41:41 50° ESE 18:46:39 10° S
SL-16 R/B 3.3 18:37:46 10° SSW 18:43:14 44° ESE 18:48:38 10° NE
FENGYUN 3A 3.8 18:43:40 51° WNW 18:44:00 51° W 18:49:21 10° SSW
BREEZE-M DEB (TANK) 4.4 18:41:02 10° SW 18:45:19 86° NW 19:04:01 10° NE
Cosmos 1300 4.4 18:45:25 22° ENE 18:46:05 23° E 18:48:55 10° SE
CZ-2C R/B 4.5 18:47:33 23° WSW 18:47:33 23° WSW 18:51:02 10° SW
Timation 1 Rocket 4.3 18:47:18 47° N 18:49:05 76° ENE 18:55:07 10° SSE
Cosmos 1428 Rocket 4.4 18:43:40 10° SSW 18:49:48 68° W 18:51:38 45° NNW
Cosmos 1346 Rocket 3.8 18:53:36 33° SW 18:53:36 33° SW 18:56:37 10° S
COSMOS 2455 3.3 18:51:32 37° WNW 18:53:26 49° SW 18:59:18 10° SSE
Cosmos 1452 Rocket 4.3 18:48:51 10° SW 18:53:05 34° W 18:53:05 34° W
Cosmos 1302 Rocket 3.9 18:49:13 10° SSW 18:54:34 77° WNW 18:56:17 44° N
ALOS 2.1 18:56:23 60° NNW 18:57:04 71° WNW 19:01:46 10° SSW
Cosmos 1933 Rocket 4.4 18:56:36 31° NE 18:58:08 45° E 19:02:20 10° SSE
Cosmos 1633 Rocket 3.3 19:00:08 49° W 19:00:22 50° WSW 19:04:44 10° S
Cosmos 1627 Rocket 4.4 18:56:19 10° S 19:02:41 75° W 19:05:39 33° N
METEOR-M 4.3 19:04:41 19° NNE 19:08:38 76° ESE 19:14:02 10° S
H-2A R/B 3.9 19:05:11 10° NE 19:09:27 29° ESE 19:13:51 10° S
Cosmos 1470 3.7 19:11:26 32° WSW 19:11:26 32° WSW 19:14:26 10° S
Cosmos 614 Rocket 4.3 19:11:36 40° WNW 19:12:56 50° WSW 19:17:56 10° S
ADEOS II 2.7 19:12:59 35° WNW 19:13:25 35° W 19:18:17 10° SSW
Cosmos 2333 Rocket 3.6 19:09:26 10° SSW 19:14:57 41° ESE 19:20:22 10° NE
Cosmos 2278 3.7 19:09:54 10° SSW 19:15:41 88° ESE 19:21:23 10° NNE
CZ-2C R/B 3.4 19:12:31 10° NE 19:17:31 51° ESE 19:22:32 10° S
BREEZE-M DEB (TANK) 4.0 19:16:20 10° SW 19:18:29 19° S 19:20:19 10° SE
Okean 2 4.1 19:15:29 10° SSW 19:18:59 35° W 19:18:59 35° W
Iridium 4 Rocket 3.7 19:15:49 10° SSW 19:19:43 36° W 19:19:58 36° W
Cosmos 2279 Rocket 4.0 19:16:48 26° N 19:20:34 87° E 19:26:55 10° S
Cosmos 2322 Rocket 3.0 19:15:24 10° SSW 19:21:03 53° ESE 19:26:38 10° NE
Okean 1-7 3.2 19:17:40 10° SSW 19:21:54 52° W 19:22:40 45° NW
Cosmos 1980 Rocket 3.6 19:19:53 10° SW 19:23:14 20° W 19:23:14 20° W
USA 276 3.4 19:24:47 27° SW 19:25:12 28° SSW 19:27:46 10° SE
Cosmos 1703 3.2 19:23:03 10° S 19:26:42 69° E 19:28:34 26° NNE
Aureole 3 3.7 19:22:35 10° SSW 19:26:54 71° W 19:29:50 26° N
CZ-2C R/B 2.7 19:21:37 10° SSE 19:26:56 75° ENE 19:30:17 24° N
COSMOS 2406 4.3 19:25:24 23° W 19:27:50 32° SW 19:32:58 10° S
Cosmos 1092 Rocket 4.3 19:23:19 10° SSW 19:29:24 48° W 19:32:31 27° NNW
Resurs 1-4 Rocket 3.8 19:31:23 16° W 19:31:23 16° W 19:34:18 10° SW
Cosmos 967 Rocket 4.5 19:28:38 30° NW 19:31:58 77° WSW 19:38:24 10° SSE
Cosmos 1758 3.5 19:31:17 28° N 19:33:08 65° E 19:36:57 10° SSE
BlueWalker 3 1.8 19:36:25 44° NW 19:37:31 80° NE 19:41:18 10° SE
NOSS 3-2 (C) 4.3 19:38:02 23° NW 19:44:13 74° SW 19:52:09 10° SSE
Cosmos 2219 Rocket 3.7 19:42:55 10° S 19:48:17 39° ESE 19:53:35 10° NE
USA 215 3.9 19:42:48 10° N 19:48:24 30° NW 19:54:06 10° WSW
Cosmos 1833 4.4 19:45:28 18° N 19:49:38 69° ENE 19:55:17 10° SSE
Lacrosse 5 rocket 1.3 19:51:05 10° SW 19:55:05 81° SE 19:59:12 10° NE
Cosmos 1269 Rocket 4.2 19:53:31 23° NW 19:56:46 58° WSW 20:02:04 10° SSE
Cosmos 2082 Rocket 4.2 19:54:53 10° W 19:58:09 15° SW 20:01:27 10° S
BREEZE-M DEB (TANK) 2.4 19:56:08 11° WSW 19:58:24 77° NNW 20:03:51 10° NE
Cosmos 1825 1.8 19:55:59 10° S 19:59:15 79° E 20:02:27 10° N
YAOGAN 6 2.1 19:57:43 12° NNE 20:00:33 86° WNW 20:03:43 10° SSW
Helios 1A Rocket 2.9 19:57:19 10° SSE 20:01:03 68° ENE 20:04:17 13° N
IRAS Rocket 4.4 19:56:53 10° NNE 20:02:32 84° ESE 20:08:16 10° SSW
Meteor 2-5 Rocket 3.8 19:57:51 10° SSW 20:03:55 84° W 20:09:53 10° N
Meteor 1-12 Rocket 4.3 19:59:33 10° N 20:05:15 87° E 20:11:00 10° S
CENTAUR R/B 4.3 19:59:36 10° W 20:05:39 24° SW 20:10:53 10° SSE
Cosmos 1140 Rocket 3.4 20:01:42 16° NNW 20:05:52 90° W 20:11:05 10° SSE
SAR-Lupe-1 4.0 20:04:38 10° N 20:08:12 73° WNW 20:11:51 10° SSW
CZ-4 R/B 3.9 20:06:28 10° N 20:11:07 56° W 20:15:47 10° SSW
Cosmos 2360 Rocket 2.1 20:05:43 10° SSW 20:11:26 78° WNW 20:17:05 10° NNE
OAO 2 Rocket 4.1 20:09:04 18° WNW 20:11:52 32° N 20:16:20 10° NE
Cosmos 2266 Rocket 4.0 20:05:45 10° S 20:12:04 77° W 20:18:24 10° N
Cosmos 2333 4.4 20:08:04 10° SSW 20:13:57 82° ESE 20:19:44 10° NNE
SL-4 R/B 2.1 20:09:49 10° SW 20:14:02 89° SE 20:18:23 10° NE
Cosmos 405 Rocket 2.6 20:11:44 11° N 20:15:05 77° E 20:18:38 10° SSE
Cosmos 407 Rocket 3.8 20:10:20 10° N 20:15:26 68° ENE 20:20:39 10° SSE
Cosmos 44 4.2 20:16:25 15° WNW 20:19:54 36° SW 20:24:35 10° SSE
Cosmos 1300 4.2 20:18:56 15° WNW 20:20:15 18° WSW 20:22:47 10° SSW
Envisat 4.4 20:18:41 15° NW 20:20:54 20° W 20:24:37 10° SW
Cosmos 1607 4.0 20:15:46 10° SSW 20:22:08 88° ESE 20:28:32 10° NNE
Lacrosse 5 3.3 20:20:30 10° W 20:23:32 16° WNW 20:26:33 10° NNW
Cosmos 2242 Rocket 3.7 20:22:03 10° SSW 20:26:38 61° W 20:31:09 10° N
SL-16 R/B 3.1 20:22:17 10° SW 20:27:04 28° WNW 20:31:49 10° NNW
NOSS 3-3 (A) 4.2 20:21:50 10° SW 20:27:26 38° WNW 20:32:20 10° N
Cosmos 2251 Rocket 3.9 20:23:56 10° N 20:29:16 70° ENE 20:34:39 10° SSE
Cosmos 1437 Rocket 2.7 20:28:41 10° S 20:32:25 77° E 20:36:03 10° NNE
Cosmos 1455 2.0 20:29:41 10° NNW 20:32:54 52° W 20:36:13 10° S
ATLAS CENTAUR R/B 3.6 20:36:57 10° N 20:40:53 36° ENE 20:46:09 10° ESE
Cosmos 1655 Rocket 4.1 20:39:02 10° SSW 20:45:26 67° W 20:51:47 10° N
H-2A R/B 2.6 20:44:06 10° NNW 20:48:39 35° W 20:53:22 10° SSW
Cosmos 1892 3.7 20:46:16 10° SW 20:49:02 23° W 20:51:47 10° NW
BREEZE-M DEB (TANK) 4.4 20:47:20 10° W 20:49:46 15° NW 20:52:35 10° N
SL-16 R/B 2.9 20:43:31 10° SSE 20:49:51 71° ENE 20:56:08 10° N
Cosmos 1953 2.3 20:46:50 10° NNW 20:50:41 61° W 20:54:35 10° S
ARIANE 5 R/B 4.5 20:46:10 10° NE 20:50:55 36° ESE 20:55:44 10° S
Cosmos 1733 Rocket 3.4 20:47:45 10° NNW 20:51:54 45° WSW 20:56:07 10° S
Geosat 4.2 20:47:09 10° NNE 20:52:11 82° ESE 20:57:15 10° SSW
CZ-2C R/B 3.8 20:52:01 10° NW 20:55:51 21° W 20:59:41 10° SW
